This is the latest recevied weather packets stored in our database for station/object FW0690. If no packets are shown the sender has not sent any weather packets the latest 10 day(s).
| Time | Temp. | Humidity | Pressure | Rain* | Wind** | Luminosity | Snow |
|---|---|---|---|---|---|---|---|
| 1787733229 | 22.78° C | 67% | 1014.5 hPa | - | - | 23 W/m² | - |
| 1787732869 | 22.78° C | 67% | 1014.6 hPa | - | - | 21 W/m² | - |
| 1787732509 | 22.78° C | 67% | 1014.6 hPa | - | - | 19 W/m² | - |
| 1787732149 | 22.78° C | 67% | 1014.7 hPa | - | - | 18 W/m² | - |
| 1787731789 | 22.78° C | 67% | 1014.5 hPa | - | - | 18 W/m² | - |
| 1787731429 | 22.78° C | 67% | 1014.5 hPa | - | - | 17 W/m² | - |
| 1787731069 | 22.78° C | 67% | 1014.4 hPa | - | - | 18 W/m² | - |
| 1787730709 | 22.22° C | 67% | 1014.4 hPa | - | - | 18 W/m² | - |
| 1787730349 | 22.22° C | 67% | 1014.3 hPa | - | - | 17 W/m² | - |
| 1787729989 | 22.22° C | 68% | 1014.3 hPa | - | - | 17 W/m² | - |
| 1787729629 | 22.22° C | 68% | 1014.3 hPa | - | - | 17 W/m² | - |
| 1787729269 | 22.22° C | 69% | 1014.2 hPa | - | - | 22 W/m² | - |
| 1787728909 | 22.22° C | 69% | 1014.1 hPa | - | - | 25 W/m² | - |
| 1787728549 | 21.67° C | 70% | 1014 hPa | - | - | 24 W/m² | - |
| 1787728189 | 21.67° C | 69% | 1014.1 hPa | - | - | 21 W/m² | - |
| 1787727829 | 21.67° C | 69% | 1014.1 hPa | - | - | 18 W/m² | - |
| 1787727469 | 21.67° C | 69% | 1014.1 hPa | - | - | 14 W/m² | - |
| 1787727109 | 21.67° C | 70% | 1014.2 hPa | - | - | 12 W/m² | - |
| 1787726749 | 21.67° C | 69% | 1014.2 hPa | - | - | 11 W/m² | - |
| 1787726389 | 21.67° C | 70% | 1013.9 hPa | - | - | 10 W/m² | - |
| 1787726029 | 21.67° C | 70% | 1013.8 hPa | - | - | 9 W/m² | - |
| 1787725669 | 21.67° C | 70% | 1013.9 hPa | - | - | 9 W/m² | - |
| 1787725309 | 21.67° C | 70% | 1013.9 hPa | - | - | 12 W/m² | - |
| 1787724949 | 21.11° C | 70% | 1013.9 hPa | - | - | 14 W/m² | - |
| 1787724589 | 21.11° C | 71% | 1014 hPa | - | - | 15 W/m² | - |
* Rain since midnight (hover to see other rain measurements)
** Current wind speed in m/s (hover to see current wind gust speed)